STARLINK-35324, 65838

Orbit data source: Space-Track

STARLINK-35324, 65838 is a payload satellite owned by SpaceX/Seattle (US) in LEO that was launched on Mon, 29 Sep 2025 UTC via an FALCON 9 launch vehicle from the Air Force Western Test Range (AFWTR). Payload-class satellites include a variety of spacecraft equipped with specific instruments for various scientific and technological missions. These include communications satellites like Starlink; space stations such as the ISS; scientific satellites like the Hubble; Earth observation satellites from companies like Planet Labs, Umbra, and HawkEye 360; GPS; miniature CubeSats for education and research; and military/defense satellites.

Loading next visibility...
Identifier
65838, 2025-221R
Orbit
LEO
Country
Flag of USUS
Related business
Manufacturer
SpaceX/Seattle
Mission
Operational Commercial Communications
Bus & Motor
STARLINK V2MO, Unknown motor
Mass
575 kg wet, ~530 kg dry
Launch date (UTC)
2025-09-29 (2 months ago)
Launch vehicle
FALCON 9
Launch site
Air Force Western Test Range (AFWTR)
Object type
Payload
Rocket body
Debris
Shape & HBR
Box + 2 Pan, 17.7 m
Radar Cross Section
36.964 m²

Expand to show TLE details & history
Last TLE update: 16 hours ago

TLE from 16 hours ago
0 STARLINK-35324
1 65838U 25221R   25340.52400444  .00058444  00000-0  19674-2 0  9993
2 65838  53.1586 161.4909 0001116 117.1329 242.9785 15.30241187 10463
Epoch: 2025-12-06T12:34Z
TLE epoch observation values (Epoch: 2025-12-06T12:34:33.983Z)
Latitude
-0.00008°
Longitude
-102.70127°
Altitude
476.339 km
Speed
7.629 km/s
True Right ascension
10h 45m 57s
True Declination
0° 00' 00"
Sunlit
Object was in daylight at epoch
Visualization orbit readout
Latitude
Unknown
Longitude
Unknown
Altitude
Unknown
Speed
Unknown
Apparent Right ascension
Unknown
Apparent Declination
Unknown
Sunlit
N/A
Visualization observer readout
Local Sidereal Time
02:43:36
Azimuth
Unknown
Elevation
Unknown
Doppler factor
Unknown
Orbital elements
Apogee altitude
476.114 km
Perigee altitude
474.584 km
Semi-major axis
6,853.486 km
Eccentricity
0.00011
Inclination
53.1586°
RAAN
161.4909°
Arg. of periapsis
117.1329°
True anomaly
242.96711°
Mean anomaly
242.9785°
Eccentric anomaly
242.9728°
Mean motion
3.82539 °/min
Orbital period
94.11 mins
BSTAR
0.0019674
Loading maneuver chart data...
Computing Atmospheric mass density...
Loading historical data...
Loading historical data...
Loading historical data...
Loading historical data...
Loading historical data...
Loading historical data...
Loading historical data...

Documentation

Showing up to 5 results
|